Weather History for KFAY - February, 2013

Change the Weather History Date:

Saturday, February 2, 2013

  Actual Average Record
Temperature  
Mean Temperature 35 °F 45 °F  
Max Temperature 49 °F 57 °F 81 °F (1950)
Min Temperature 20 °F 34 °F 15 °F (1971)
Degree Days  
Heating Degree Days 30 20  
Month to date heating degree days 58 40  
Since 1 July heating degree days 1607 1766  
Cooling Degree Days 0 0  
Month to date cooling degree days 0 0  
Year to date cooling degree days 5 2  
Moisture  
Dew Point 16 °F    
Average Humidity 45    
Maximum Humidity 71    
Minimum Humidity 19    
Precipitation  
Precipitation T in 0.09 in 1.82 in (1973)
Month to date precipitation T 0.17  
Year to date precipitation 1.80 3.47  
Sea Level Pressure  
Sea Level Pressure 30.25 in    
Wind  
Wind Speed 6 mph (South)    
Max Wind Speed 24 mph    
Max Gust Speed 30 mph    
Visibility 10 miles    
Events Rain    
T = Trace of Precipitation, MM = Missing Value Source: NWS Daily Summary

Daily Weather History Graph

Daily Weather History Graph

Search for Another Location

Airport or City:

Trip Planner

Search our weather history database for the weather conditions in past years. The results will help you decide how hot, cold, wet, or windy it might be!

Date:

Astronomy

Feb. 02, 2013 Rise Set
Actual Time 7:13 AM EST 5:45 PM EST
Civil Twilight 6:46 AM EST 6:12 PM EST
Nautical Twilight 6:16 AM EST 6:42 PM EST
Astronomical Twilight 5:46 AM EST 7:12 PM EST
Moon No Moon Rise 10:40 AM EST (2/2)
Length of Visible Light 11h 25m
Length of Day
10h 32m
Waning Gibbous, 60% of the Moon is Illuminated
Feb 2
Waning Gibbous
Feb 3
Last Quarter
Feb 10
New
Feb 17
First Quarter
Feb 25
Full

Hourly Weather History & Observations

Time (EST) Temp. Windchill Dew Point Humidity Pressure Visibility Wind Dir Wind Speed Gust Speed Precip Events Conditions
12:53 AM 26.1 °F 21.9 °F 8.1 °F 47% 30.38 in 10.0 mi North 3.5 mph - N/A   Clear
1:53 AM 26.1 °F 21.9 °F 9.0 °F 49% 30.38 in 10.0 mi North 3.5 mph - N/A   Clear
2:53 AM 24.1 °F 19.7 °F 10.0 °F 55% 30.38 in 10.0 mi NE 3.5 mph - N/A   Clear
4:53 AM 21.9 °F - 10.0 °F 60% 30.38 in 10.0 mi Calm Calm - N/A   Clear
5:53 AM 21.0 °F 16.2 °F 14.0 °F 74% 30.38 in 10.0 mi NE 3.5 mph - N/A   Clear
6:53 AM 21.9 °F 17.2 °F 10.9 °F 63% 30.40 in 10.0 mi East 3.5 mph - N/A   Clear
7:53 AM 23.0 °F - 14.0 °F 68% 30.41 in 10.0 mi Calm Calm - N/A   Clear
8:53 AM 28.0 °F 20.0 °F 12.0 °F 51% 30.41 in 10.0 mi ESE 8.1 mph - N/A   Clear
9:53 AM 32.0 °F 24.8 °F 8.1 °F 37% 30.40 in 10.0 mi ESE 8.1 mph - N/A   Clear
10:53 AM 35.1 °F 31.0 °F 6.1 °F 30% 30.37 in 10.0 mi Variable 4.6 mph - N/A   Clear
11:53 AM 39.0 °F 34.8 °F 6.1 °F 26% 30.33 in 10.0 mi Variable 5.8 mph - N/A   Clear
12:53 PM 42.1 °F 38.4 °F 7.0 °F 24% 30.27 in 10.0 mi Variable 5.8 mph - N/A   Clear
1:53 PM 46.0 °F 41.9 °F 8.1 °F 21% 30.21 in 10.0 mi SSE 8.1 mph - N/A   Clear
2:53 PM 48.0 °F - 9.0 °F 21% 30.18 in 10.0 mi South 11.5 mph - N/A   Clear
3:53 PM 48.9 °F - 10.9 °F 22% 30.17 in 10.0 mi SW 13.8 mph - N/A   Scattered Clouds
4:53 PM 48.9 °F - 15.1 °F 26% 30.14 in 10.0 mi SSW 9.2 mph - N/A   Partly Cloudy
5:53 PM 45.0 °F 41.8 °F 17.1 °F 33% 30.12 in 10.0 mi South 5.8 mph - N/A   Clear
6:53 PM 44.1 °F 40.8 °F 19.9 °F 38% 30.09 in 10.0 mi SSE 5.8 mph - N/A   Partly Cloudy
7:53 PM 43.0 °F 39.5 °F 27.0 °F 53% 30.07 in 10.0 mi South 5.8 mph - N/A   Scattered Clouds
8:53 PM 44.1 °F 40.8 °F 33.1 °F 65% 30.07 in 10.0 mi SSW 5.8 mph - N/A   Mostly Cloudy
9:53 PM 45.0 °F 40.1 °F 35.1 °F 68% 30.08 in 10.0 mi SW 9.2 mph - N/A   Overcast
10:53 PM 45.0 °F 36.9 °F 34.0 °F 65% 30.07 in 10.0 mi WSW 20.7 mph 27.6 mph 0.00 in Rain Light Rain
11:53 PM 43.0 °F 38.2 °F 36.0 °F 76% 30.04 in 10.0 mi West 8.1 mph - 0.00 in   Overcast